THORAD DELTA 1 DEB, 8163

Orbit data source: Space-Track

THORAD DELTA 1 DEB, 8163 is space debris in SSO originally from a launch on Fri, 15 Nov 1974 UTC launched from the Air Force Western Test Range (AFWTR). Debris objects in space refer to the collection of defunct objects orbiting the Earth. Examples of debris include non-operational satellites, rocket bodies, and fragments generated from explosions, collisions, or faulty payload assembly.

Loading next visibility...
Identifier
8163, 1974-089AD
Orbit
SSO
Country
Flag of USUS
Related business
Manufacturer
Unknown
Mission
Spacecraft
Bus & Motor
Unknown
Mass
Unknown
Launch date (UTC)
1974-11-15 (51 years ago)
Launch vehicle
Unknown
Launch site
Air Force Western Test Range (AFWTR)
Object type
Payload
Rocket body
Debris
Shape & HBR
Unknown shape, 1.1 m
Radar Cross Section
Small (<0.1 m²)

Expand to show TLE details & history
Last TLE update: 2 days ago

TLE from 2 days ago
0 THORAD DELTA 1 DEB
1 08163U 74089AD  26121.50671932  .00000484  00000-0  33248-2 0  9999
2 08163 102.4866 142.7252 0326263 143.1414 219.2558 12.39383640304907
Epoch: 2026-05-01T12:09Z
TLE epoch observation values (Epoch: 2026-05-01T12:09:40.549Z)
Latitude
-0°
Longitude
100.86826°
Altitude
1,714.283 km
Speed
6.929 km/s
True Right ascension
09h 30m 54s
True Declination
0° 00' 00"
Sunlit
Object was in daylight at epoch
Visualization orbit readout
Latitude
Unknown
Longitude
Unknown
Altitude
Unknown
Speed
Unknown
Apparent Right ascension
Unknown
Apparent Declination
Unknown
Sunlit
N/A
Visualization observer readout
Local Sidereal Time
03:25:54
Azimuth
Unknown
Elevation
Unknown
Doppler factor
Unknown
Orbital elements
Apogee altitude
1,764.075 km
Perigee altitude
1,249.561 km
Semi-major axis
7,884.955 km
Eccentricity
0.03263
Inclination
102.4866°
RAAN
142.7252°
Arg. of periapsis
143.1414°
True anomaly
216.96313°
Mean anomaly
219.2558°
Eccentric anomaly
218.10229°
Mean motion
3.09988 °/min
Orbital period
116.13 mins
BSTAR
0.0033248
Loading maneuver chart data...
Computing Atmospheric mass density...

Documentation

Showing up to 5 results
|